| time (UTC) | temp F | wind direction | speed MPH | gust MPH | rain 1hr in | rain 24hr in | rain mn in | humidity % | barometer mb |
| 20260906011555 | 68 | 112 | 0.0 | 1.0 | 0.00 | 0.42 | 0.42 | 87 | 1011.0 |
| 20260906011054 | 68 | 112 | 0.0 | 0.0 | 0.00 | 0.42 | 0.42 | 86 | 1010.9 |
| 20260906010553 | 68 | 112 | 0.0 | 0.0 | 0.00 | 0.42 | 0.42 | 86 | 1010.8 |
| 20260906010055 | 69 | 112 | 0.0 | 0.0 | 0.00 | 0.42 | 0.42 | 85 | 1010.7 |
| 20260906005553 | 69 | 112 | 0.0 | 0.0 | 0.00 | 0.42 | 0.42 | 84 | 1010.7 |
| 20260906005055 | 69 | 112 | 0.0 | 0.0 | 0.00 | 0.42 | 0.42 | 84 | 1010.8 |
| 20260906004555 | 70 | 112 | 0.0 | 0.0 | 0.00 | 0.42 | 0.42 | 83 | 1010.7 |
| 20260906004053 | 70 | 112 | 0.0 | 0.0 | 0.00 | 0.42 | 0.42 | 82 | 1010.7 |
| 20260906003554 | 70 | 112 | 0.0 | 0.0 | 0.00 | 0.42 | 0.42 | 81 | 1010.6 |
| 20260906003052 | 71 | 112 | 0.0 | 0.0 | 0.00 | 0.42 | 0.42 | 80 | 1010.5 |
| 20260906002552 | 71 | 112 | 0.0 | 0.0 | 0.00 | 0.42 | 0.42 | 80 | 1010.5 |
| 20260906002054 | 71 | 112 | 0.0 | 0.0 | 0.00 | 0.42 | 0.42 | 79 | 1010.6 |
| 20260906001551 | 71 | 112 | 0.0 | 0.0 | 0.00 | 0.42 | 0.42 | 79 | 1010.5 |
| 20260906001059 | 71 | 86 | 0.0 | 0.0 | 0.00 | 0.42 | 0.42 | 78 | 1010.5 |
| 20260906000552 | 71 | 88 | 0.0 | 0.0 | 0.00 | 0.42 | 0.42 | 78 | 1010.3 |
| 20260905235551 | 71 | 76 | 0.0 | 0.0 | 0.00 | 0.42 | 0.42 | 78 | 1010.1 |
| 20260905235051 | 71 | 90 | 0.0 | 0.0 | 0.00 | 0.42 | 0.42 | 77 | 1010.1 |
| 20260905234610 | 72 | 61 | 0.0 | 0.0 | 0.00 | 0.42 | 0.42 | 76 | 1010.0 |
| 20260905234050 | 73 | 90 | 0.0 | 0.0 | 0.00 | 0.42 | 0.42 | 76 | 1010.0 |
| 20260905233550 | 73 | 10 | 0.0 | 0.0 | 0.00 | 0.42 | 0.42 | 75 | 1009.9 |
| 20260905233050 | 74 | 10 | 0.0 | 0.0 | 0.00 | 0.42 | 0.42 | 74 | 1009.8 |
| 20260905232550 | 74 | 10 | 0.0 | 0.0 | 0.00 | 0.42 | 0.42 | 71 | 1009.8 |
| 20260905232050 | 75 | 10 | 0.0 | 0.0 | 0.00 | 0.42 | 0.42 | 70 | 1009.8 |
| 20260905231550 | 75 | 11 | 0.0 | 0.0 | 0.00 | 0.42 | 0.42 | 69 | 1009.8 |
| 20260905231049 | 76 | 11 | 0.0 | 0.0 | 0.00 | 0.42 | 0.42 | 70 | 1009.7 |
| 20260905230551 | 76 | 11 | 0.0 | 0.0 | 0.00 | 0.42 | 0.42 | 67 | 1009.6 |
| 20260905230051 | 77 | 10 | 0.0 | 0.0 | 0.00 | 0.42 | 0.42 | 66 | 1009.6 |
| 20260905225549 | 78 | 10 | 0.0 | 0.0 | 0.00 | 0.42 | 0.42 | 63 | 1009.7 |
| 20260905225049 | 79 | 10 | 0.0 | 1.0 | 0.00 | 0.42 | 0.42 | 62 | 1009.7 |
| 20260905224551 | 79 | 10 | 0.0 | 2.0 | 0.00 | 0.42 | 0.42 | 61 | 1009.6 |
| 20260905224048 | 80 | 31 | 0.0 | 1.0 | 0.00 | 0.42 | 0.42 | 60 | 1009.6 |
| 20260905223549 | 80 | 360 | 0.0 | 1.0 | 0.00 | 0.42 | 0.42 | 60 | 1009.6 |
| 20260905223051 | 81 | 360 | 0.0 | 1.0 | 0.00 | 0.42 | 0.42 | 57 | 1009.5 |
| 20260905222551 | 81 | 360 | 0.0 | 2.0 | 0.00 | 0.42 | 0.42 | 57 | 1009.6 |
| 20260905222048 | 81 | 346 | 0.0 | 3.0 | 0.00 | 0.42 | 0.42 | 57 | 1009.6 |
| 20260905221553 | 81 | 33 | 0.0 | 3.0 | 0.00 | 0.42 | 0.42 | 56 | 1009.6 |
| 20260905221051 | 82 | 172 | 0.0 | 3.0 | 0.00 | 0.42 | 0.42 | 55 | 1009.4 |
| 20260905220547 | 82 | 5 | 0.0 | 8.0 | 0.00 | 0.42 | 0.42 | 56 | 1009.4 |
| 20260905220053 | 81 | 11 | 0.0 | 8.0 | 0.00 | 0.42 | 0.42 | 56 | 1009.4 |
| 20260905215548 | 82 | 59 | 1.0 | 5.0 | 0.00 | 0.42 | 0.42 | 54 | 1009.2 |
| 20260905215046 | 82 | 57 | 0.0 | 5.0 | 0.00 | 0.42 | 0.42 | 59 | 1009.2 |
| 20260905214547 | 83 | 47 | 1.0 | 4.0 | 0.00 | 0.42 | 0.42 | 55 | 1009.3 |
| 20260905214047 | 83 | 59 | 1.0 | 4.0 | 0.00 | 0.42 | 0.42 | 56 | 1009.2 |
| 20260905213547 | 82 | 263 | 0.0 | 3.0 | 0.00 | 0.42 | 0.42 | 55 | 1009.2 |
| 20260905213046 | 82 | 342 | 0.0 | 8.0 | 0.00 | 0.42 | 0.42 | 57 | 1009.1 |
| 20260905212546 | 82 | 38 | 2.0 | 8.0 | 0.00 | 0.42 | 0.42 | 53 | 1009.1 |
| 20260905212049 | 83 | 28 | 0.0 | 6.0 | 0.00 | 0.42 | 0.42 | 55 | 1009.1 |
| 20260905211546 | 83 | 46 | 1.0 | 6.0 | 0.00 | 0.42 | 0.42 | 55 | 1009.1 |
| 20260905211045 | 83 | 324 | 1.0 | 6.0 | 0.00 | 0.42 | 0.42 | 54 | 1009.0 |
| 20260905210545 | 83 | 75 | 2.0 | 5.0 | 0.00 | 0.42 | 0.42 | 54 | 1009.0 |
| 20260905210055 | 82 | 225 | 0.0 | 6.0 | 0.00 | 0.42 | 0.42 | 57 | 1009.0 |
| 20260905205546 | 82 | 86 | 1.0 | 6.0 | 0.00 | 0.42 | 0.42 | 59 | 1009.0 |
| 20260905205045 | 81 | 355 | 1.0 | 5.0 | 0.00 | 0.42 | 0.42 | 61 | 1009.0 |
| 20260905204547 | 81 | 22 | 1.0 | 7.0 | 0.00 | 0.42 | 0.42 | 62 | 1009.0 |
| 20260905204042 | 81 | 235 | 2.0 | 7.0 | 0.00 | 0.42 | 0.42 | 62 | 1009.0 |
| 20260905203546 | 81 | 318 | 0.0 | 3.0 | 0.00 | 0.42 | 0.42 | 63 | 1009.0 |
| 20260905203058 | 81 | 331 | 1.0 | 4.0 | 0.00 | 0.42 | 0.42 | 61 | 1009.0 |
| 20260905202541 | 82 | 103 | 1.0 | 4.0 | 0.00 | 0.42 | 0.42 | 60 | 1009.0 |
| 20260905202043 | 82 | 5 | 1.0 | 3.0 | 0.00 | 0.42 | 0.42 | 59 | 1009.1 |
| 20260905201541 | 81 | 44 | 0.0 | 4.0 | 0.00 | 0.42 | 0.42 | 63 | 1009.1 |
| 20260905201041 | 81 | 23 | 1.0 | 4.0 | 0.00 | 0.42 | 0.42 | 61 | 1009.2 |
| 20260905200541 | 81 | 291 | 2.0 | 4.0 | 0.00 | 0.42 | 0.42 | 60 | 1009.3 |
| 20260905200042 | 81 | 355 | 0.0 | 6.0 | 0.00 | 0.42 | 0.42 | 60 | 1009.3 |
| 20260905195540 | 81 | 33 | 0.0 | 6.0 | 0.00 | 0.42 | 0.42 | 62 | 1009.4 |
| 20260905195040 | 82 | 5 | 1.0 | 5.0 | 0.00 | 0.42 | 0.42 | 59 | 1009.3 |
| 20260905194539 | 82 | 321 | 2.0 | 5.0 | 0.00 | 0.42 | 0.42 | 59 | 1009.4 |
| 20260905194040 | 81 | 247 | 1.0 | 4.0 | 0.00 | 0.42 | 0.42 | 62 | 1009.4 |
| 20260905193538 | 81 | 262 | 0.0 | 5.0 | 0.00 | 0.42 | 0.42 | 63 | 1009.4 |
| 20260905193038 | 81 | 53 | 1.0 | 5.0 | 0.00 | 0.42 | 0.42 | 62 | 1009.6 |
| 20260905192538 | 81 | 56 | 1.0 | 4.0 | 0.00 | 0.42 | 0.42 | 60 | 1009.5 |
| 20260905192042 | 81 | 340 | 1.0 | 8.0 | 0.00 | 0.42 | 0.42 | 60 | 1009.6 |
| 20260905191542 | 81 | 273 | 1.0 | 8.0 | 0.00 | 0.42 | 0.42 | 60 | 1009.6 |
| 20260905191038 | 82 | 339 | 1.0 | 4.0 | 0.00 | 0.42 | 0.42 | 60 | 1009.6 |
| 20260905190538 | 81 | 300 | 1.0 | 7.0 | 0.00 | 0.42 | 0.42 | 58 | 1009.6 |
| 20260905190038 | 82 | 197 | 2.0 | 7.0 | 0.00 | 0.42 | 0.42 | 58 | 1009.7 |
| 20260905185537 | 82 | 277 | 1.0 | 4.0 | 0.00 | 0.42 | 0.42 | 61 | 1009.7 |
| 20260905185037 | 82 | 336 | 0.0 | 4.0 | 0.00 | 0.42 | 0.42 | 62 | 1009.7 |
| 20260905184544 | 81 | 223 | 0.0 | 5.0 | 0.00 | 0.42 | 0.42 | 60 | 1009.8 |
| 20260905184037 | 81 | 29 | 2.0 | 6.0 | 0.00 | 0.42 | 0.42 | 58 | 1009.8 |
| 20260905183536 | 81 | 17 | 1.0 | 5.0 | 0.00 | 0.42 | 0.42 | 63 | 1009.9 |
| 20260905183037 | 81 | 132 | 1.0 | 5.0 | 0.00 | 0.42 | 0.42 | 62 | 1010.0 |
| 20260905182535 | 81 | 40 | 1.0 | 5.0 | 0.00 | 0.42 | 0.42 | 61 | 1010.0 |
| 20260905182035 | 81 | 278 | 0.0 | 7.0 | 0.00 | 0.42 | 0.42 | 64 | 1010.0 |
| 20260905181535 | 81 | 296 | 1.0 | 7.0 | 0.00 | 0.42 | 0.42 | 62 | 1010.1 |
| 20260905181035 | 81 | 45 | 0.0 | 6.0 | 0.00 | 0.42 | 0.42 | 62 | 1010.1 |
| 20260905180535 | 81 | 5 | 2.0 | 7.0 | 0.00 | 0.42 | 0.42 | 61 | 1010.1 |
| 20260905180034 | 81 | 255 | 2.0 | 9.0 | 0.00 | 0.42 | 0.42 | 61 | 1010.1 |
| 20260905175537 | 80 | 26 | 3.0 | 9.0 | 0.00 | 0.42 | 0.42 | 60 | 1010.2 |
| 20260905175034 | 80 | 333 | 2.0 | 9.0 | 0.00 | 0.42 | 0.42 | 60 | 1010.3 |
| 20260905174535 | 81 | 299 | 2.0 | 5.0 | 0.00 | 0.42 | 0.42 | 60 | 1010.3 |
| 20260905174031 | 80 | 5 | 1.0 | 8.0 | 0.00 | 0.42 | 0.42 | 59 | 1010.2 |
| 20260905173529 | 80 | 57 | 1.0 | 8.0 | 0.00 | 0.42 | 0.42 | 61 | 1010.3 |
| 20260905173034 | 80 | 292 | 1.0 | 6.0 | 0.00 | 0.42 | 0.42 | 59 | 1010.3 |
| 20260905172529 | 80 | 311 | 2.0 | 8.0 | 0.00 | 0.42 | 0.42 | 59 | 1010.3 |
| 20260905172030 | 80 | 338 | 2.0 | 8.0 | 0.00 | 0.42 | 0.42 | 59 | 1010.4 |
| 20260905171536 | 80 | 270 | 2.0 | 8.0 | 0.00 | 0.42 | 0.42 | 61 | 1010.4 |
| 20260905171032 | 80 | 36 | 2.0 | 5.0 | 0.00 | 0.42 | 0.42 | 61 | 1010.3 |
| 20260905170527 | 79 | 39 | 1.0 | 4.0 | 0.00 | 0.42 | 0.42 | 61 | 1010.5 |
| 20260905170027 | 79 | 255 | 1.0 | 7.0 | 0.00 | 0.42 | 0.42 | 64 | 1010.5 |
| 20260905165531 | 79 | 293 | 2.0 | 7.0 | 0.00 | 0.42 | 0.42 | 61 | 1010.5 |
| 20260905165030 | 79 | 263 | 2.0 | 6.0 | 0.00 | 0.42 | 0.42 | 61 | 1010.6 |
| 20260905164525 | 79 | 355 | 0.0 | 5.0 | 0.00 | 0.42 | 0.42 | 64 | 1010.6 |
| 20260905164027 | 79 | 347 | 0.0 | 5.0 | 0.00 | 0.42 | 0.42 | 62 | 1010.7 |
| 20260905163526 | 79 | 294 | 1.0 | 4.0 | 0.00 | 0.42 | 0.42 | 63 | 1010.6 |
| 20260905163031 | 79 | 52 | 0.0 | 6.0 | 0.00 | 0.42 | 0.42 | 63 | 1010.6 |
| 20260905162523 | 78 | 12 | 2.0 | 6.0 | 0.00 | 0.42 | 0.42 | 62 | 1010.8 |
| 20260905162023 | 79 | 333 | 0.0 | 3.0 | 0.00 | 0.42 | 0.42 | 62 | 1010.8 |
| 20260905161522 | 78 | 355 | 0.0 | 6.0 | 0.00 | 0.42 | 0.42 | 64 | 1010.8 |
| 20260905161022 | 78 | 27 | 2.0 | 6.0 | 0.00 | 0.42 | 0.42 | 63 | 1010.8 |
| 20260905160520 | 78 | 5 | 1.0 | 5.0 | 0.00 | 0.42 | 0.42 | 64 | 1010.8 |
| 20260905160021 | 78 | 29 | 0.0 | 5.0 | 0.00 | 0.42 | 0.42 | 67 | 1010.8 |
| 20260905155521 | 78 | 302 | 1.0 | 5.0 | 0.00 | 0.42 | 0.42 | 66 | 1010.8 |
| 20260905155019 | 77 | 336 | 0.0 | 3.0 | 0.00 | 0.42 | 0.42 | 68 | 1010.9 |
| 20260905154519 | 77 | 314 | 0.0 | 4.0 | 0.00 | 0.42 | 0.42 | 67 | 1011.0 |
| 20260905154020 | 77 | 38 | 1.0 | 5.0 | 0.00 | 0.42 | 0.42 | 66 | 1011.0 |
| 20260905153521 | 76 | 336 | 1.0 | 5.0 | 0.00 | 0.42 | 0.42 | 67 | 1010.9 |
| 20260905153021 | 76 | 351 | 1.0 | 4.0 | 0.00 | 0.42 | 0.42 | 69 | 1011.0 |
| 20260905152518 | 76 | 44 | 1.0 | 4.0 | 0.00 | 0.42 | 0.42 | 69 | 1011.0 |
| 20260905152018 | 76 | 14 | 0.0 | 4.0 | 0.00 | 0.42 | 0.42 | 70 | 1011.2 |
| 20260905151518 | 76 | 93 | 1.0 | 4.0 | 0.00 | 0.42 | 0.42 | 68 | 1011.2 |
| 20260905151018 | 76 | 28 | 1.0 | 4.0 | 0.00 | 0.42 | 0.42 | 68 | 1011.1 |
| 20260905150519 | 76 | 332 | 0.0 | 5.0 | 0.00 | 0.42 | 0.42 | 67 | 1011.0 |
| 20260905150021 | 77 | 40 | 1.0 | 8.0 | 0.00 | 0.42 | 0.42 | 66 | 1010.9 |
| 20260905145515 | 77 | 355 | 1.0 | 4.0 | 0.00 | 0.42 | 0.42 | 66 | 1011.0 |
| 20260905145015 | 77 | 30 | 1.0 | 5.0 | 0.00 | 0.42 | 0.42 | 69 | 1010.9 |
| 20260905144515 | 77 | 22 | 1.0 | 5.0 | 0.00 | 0.42 | 0.42 | 69 | 1010.8 |
| 20260905144016 | 77 | 30 | 1.0 | 7.0 | 0.00 | 0.42 | 0.42 | 70 | 1010.7 |
| 20260905143513 | 77 | 24 | 1.0 | 7.0 | 0.00 | 0.42 | 0.42 | 71 | 1010.7 |
| 20260905143013 | 76 | 13 | 0.0 | 6.0 | 0.00 | 0.42 | 0.42 | 71 | 1010.6 |
| 20260905142511 | 76 | 26 | 0.0 | 6.0 | 0.00 | 0.42 | 0.42 | 72 | 1010.5 |
| 20260905142015 | 76 | 28 | 0.0 | 7.0 | 0.00 | 0.42 | 0.42 | 73 | 1010.4 |
| 20260905141512 | 76 | 24 | 1.0 | 7.0 | 0.00 | 0.42 | 0.42 | 73 | 1010.5 |
| 20260905141011 | 76 | 51 | 0.0 | 5.0 | 0.00 | 0.42 | 0.42 | 74 | 1010.3 |
| 20260905140510 | 76 | 65 | 1.0 | 5.0 | 0.00 | 0.42 | 0.42 | 77 | 1010.3 |
| 20260905140011 | 75 | 51 | 1.0 | 10.0 | 0.00 | 0.42 | 0.42 | 76 | 1010.3 |
| 20260905135510 | 74 | 49 | 1.0 | 10.0 | 0.00 | 0.42 | 0.42 | 76 | 1010.3 |
| 20260905135009 | 74 | 98 | 3.0 | 9.0 | 0.00 | 0.42 | 0.42 | 77 | 1010.2 |
| 20260905134513 | 73 | 10 | 1.0 | 9.0 | 0.00 | 0.42 | 0.42 | 80 | 1010.3 |
| 20260905134009 | 73 | 22 | 1.0 | 9.0 | 0.00 | 0.42 | 0.42 | 80 | 1010.3 |
| 20260905133508 | 73 | 32 | 2.0 | 6.0 | 0.00 | 0.42 | 0.42 | 80 | 1010.4 |
| 20260905133009 | 73 | 314 | 1.0 | 5.0 | 0.00 | 0.42 | 0.42 | 83 | 1010.3 |
| 20260905132509 | 73 | 40 | 1.0 | 5.0 | 0.00 | 0.42 | 0.42 | 83 | 1010.4 |
| 20260905132007 | 72 | 34 | 1.0 | 5.0 | 0.00 | 0.42 | 0.42 | 83 | 1010.3 |
| 20260905131514 | 72 | 93 | 1.0 | 5.0 | 0.00 | 0.42 | 0.42 | 84 | 1010.3 |
| 20260905131006 | 72 | 20 | 1.0 | 4.0 | 0.00 | 0.42 | 0.42 | 84 | 1010.4 |
| 20260905130506 | 72 | 36 | 1.0 | 6.0 | 0.00 | 0.42 | 0.42 | 84 | 1010.4 |
| 20260905130006 | 72 | 43 | 1.0 | 6.0 | 0.00 | 0.42 | 0.42 | 84 | 1010.4 |
| 20260905125505 | 72 | 92 | 0.0 | 6.0 | 0.00 | 0.42 | 0.42 | 85 | 1010.4 |
| 20260905125006 | 72 | 33 | 1.0 | 6.0 | 0.00 | 0.42 | 0.42 | 85 | 1010.3 |
| 20260905124506 | 72 | 52 | 0.0 | 17.0 | 0.00 | 0.42 | 0.42 | 86 | 1010.3 |
| 20260905124004 | 72 | 59 | 0.0 | 17.0 | 0.00 | 0.42 | 0.42 | 86 | 1010.3 |
| 20260905123504 | 72 | 43 | 0.0 | 11.0 | 0.00 | 0.42 | 0.42 | 87 | 1010.3 |
| 20260905123004 | 71 | 12 | 1.0 | 11.0 | 0.00 | 0.42 | 0.42 | 88 | 1010.3 |
| 20260905122504 | 71 | 300 | 0.0 | 6.0 | 0.00 | 0.42 | 0.42 | 88 | 1010.2 |
| 20260905122003 | 71 | 5 | 0.0 | 5.0 | 0.00 | 0.42 | 0.42 | 90 | 1010.3 |
| 20260905121503 | 71 | 38 | 0.0 | 3.0 | 0.00 | 0.42 | 0.42 | 92 | 1010.3 |
| 20260905121004 | 70 | 40 | 0.0 | 2.0 | 0.00 | 0.42 | 0.42 | 92 | 1010.3 |
| 20260905120504 | 70 | 346 | 0.0 | 6.0 | 0.00 | 0.42 | 0.42 | 93 | 1010.3 |
| 20260905120008 | 70 | 34 | 0.0 | 6.0 | 0.00 | 0.42 | 0.42 | 93 | 1010.2 |
| 20260905115505 | 69 | 355 | 0.0 | 3.0 | 0.00 | 0.42 | 0.42 | 93 | 1010.1 |
| 20260905115003 | 69 | 355 | 0.0 | 3.0 | 0.00 | 0.42 | 0.42 | 93 | 1010.1 |
| 20260905114507 | 69 | 36 | 0.0 | 3.0 | 0.00 | 0.42 | 0.42 | 93 | 1010.0 |
| 20260905114001 | 69 | 36 | 0.0 | 3.0 | 0.00 | 0.42 | 0.42 | 93 | 1010.0 |
| 20260905113501 | 69 | 340 | 0.0 | 1.0 | 0.00 | 0.42 | 0.42 | 93 | 1010.2 |
| 20260905113002 | 69 | 344 | 0.0 | 14.0 | 0.00 | 0.42 | 0.42 | 93 | 1010.0 |
| 20260905112601 | 68 | 344 | 0.0 | 14.0 | 0.00 | 0.42 | 0.42 | 93 | 1010.0 |
| 20260905112102 | 68 | 9 | 0.0 | 1.0 | 0.00 | 0.42 | 0.42 | 93 | 1009.9 |
| 20260905112004 | 68 | 5 | 0.0 | 1.0 | 0.00 | 0.42 | 0.42 | 93 | 1009.8 |
| 20260905111627 | 68 | 5 | 0.0 | 2.0 | 0.00 | 0.42 | 0.42 | 93 | 1009.8 |
| 20260905111058 | 69 | 344 | 0.0 | 2.0 | 0.00 | 0.42 | 0.42 | 93 | 1009.8 |
| 20260905110558 | 69 | 13 | 0.0 | 3.0 | 0.00 | 0.42 | 0.42 | 93 | 1009.7 |
| 20260905110107 | 69 | 66 | 0.0 | 2.0 | 0.00 | 0.42 | 0.42 | 93 | 1009.6 |
| 20260905105600 | 69 | 40 | 0.0 | 2.0 | 0.00 | 0.42 | 0.42 | 93 | 1009.5 |
| 20260905105057 | 69 | 34 | 0.0 | 3.0 | 0.00 | 0.42 | 0.42 | 93 | 1009.4 |
| 20260905104616 | 69 | 22 | 0.0 | 2.0 | 0.00 | 0.42 | 0.42 | 93 | 1009.4 |
| 20260905104059 | 69 | 19 | 0.0 | 1.0 | 0.00 | 0.42 | 0.42 | 93 | 1009.3 |
| 20260905103555 | 69 | 19 | 0.0 | 1.0 | 0.00 | 0.42 | 0.42 | 93 | 1009.3 |
| 20260905103055 | 69 | 61 | 0.0 | 1.0 | 0.00 | 0.42 | 0.42 | 93 | 1009.3 |
| 20260905102554 | 70 | 5 | 0.0 | 3.0 | 0.00 | 0.42 | 0.42 | 93 | 1009.2 |
| 20260905102054 | 70 | 346 | 0.0 | 1.0 | 0.00 | 0.42 | 0.42 | 93 | 1009.1 |
| 20260905101555 | 70 | 22 | 0.0 | 0.0 | 0.00 | 0.42 | 0.42 | 93 | 1009.1 |
| 20260905101052 | 70 | 30 | 0.0 | 0.0 | 0.00 | 0.42 | 0.42 | 93 | 1009.1 |
| 20260905100553 | 70 | 22 | 0.0 | 0.0 | 0.00 | 0.42 | 0.42 | 94 | 1009.1 |
| 20260905100051 | 70 | 18 | 0.0 | 0.0 | 0.00 | 0.42 | 0.42 | 94 | 1009.0 |
| 20260905095550 | 71 | 14 | 0.0 | 0.0 | 0.00 | 0.42 | 0.42 | 94 | 1009.0 |
| 20260905095051 | 71 | 34 | 0.0 | 0.0 | 0.00 | 0.42 | 0.42 | 94 | 1009.1 |
| 20260905094655 | 71 | 37 | 0.0 | 2.0 | 0.00 | 0.42 | 0.42 | 94 | 1009.0 |
| 20260905094049 | 71 | 29 | 0.0 | 2.0 | 0.00 | 0.42 | 0.42 | 94 | 1009.0 |
| 20260905093549 | 71 | 26 | 0.0 | 3.0 | 0.00 | 0.42 | 0.42 | 94 | 1009.0 |
| 20260905093052 | 71 | 26 | 0.0 | 4.0 | 0.00 | 0.42 | 0.42 | 94 | 1009.0 |
| 20260905092550 | 71 | 35 | 0.0 | 4.0 | 0.00 | 0.42 | 0.42 | 94 | 1008.9 |
| 20260905092048 | 71 | 35 | 0.0 | 3.0 | 0.00 | 0.42 | 0.42 | 94 | 1008.9 |
| 20260905091552 | 71 | 38 | 0.0 | 1.0 | 0.00 | 0.42 | 0.42 | 94 | 1009.0 |
| 20260905091051 | 71 | 38 | 0.0 | 1.0 | 0.00 | 0.42 | 0.42 | 94 | 1009.0 |
| 20260905090547 | 71 | 5 | 0.0 | 1.0 | 0.00 | 0.42 | 0.42 | 94 | 1009.0 |
| 20260905090047 | 71 | 46 | 0.0 | 1.0 | 0.00 | 0.42 | 0.42 | 94 | 1009.1 |
| 20260905085547 | 71 | 57 | 0.0 | 1.0 | 0.00 | 0.42 | 0.42 | 93 | 1009.1 |
| 20260905085046 | 71 | 39 | 0.0 | 0.0 | 0.00 | 0.42 | 0.42 | 93 | 1009.0 |
| 20260905084558 | 71 | 39 | 0.0 | 0.0 | 0.00 | 0.42 | 0.42 | 93 | 1009.1 |
| 20260905084048 | 71 | 39 | 0.0 | 0.0 | 0.00 | 0.42 | 0.42 | 93 | 1009.1 |
| 20260905083545 | 71 | 39 | 0.0 | 0.0 | 0.00 | 0.42 | 0.42 | 93 | 1009.1 |
| 20260905083045 | 71 | 39 | 0.0 | 0.0 | 0.00 | 0.42 | 0.42 | 93 | 1009.0 |
| 20260905082545 | 71 | 39 | 0.0 | 0.0 | 0.00 | 0.42 | 0.42 | 93 | 1009.0 |
| 20260905082044 | 71 | 39 | 0.0 | 1.0 | 0.00 | 0.42 | 0.42 | 93 | 1009.0 |
| 20260905081543 | 71 | 39 | 0.0 | 1.0 | 0.00 | 0.42 | 0.42 | 93 | 1008.9 |
| 20260905081043 | 71 | 39 | 0.0 | 0.0 | 0.00 | 0.42 | 0.42 | 93 | 1009.0 |
| 20260905080543 | 71 | 39 | 0.0 | 0.0 | 0.00 | 0.42 | 0.42 | 93 | 1009.1 |
| 20260905080052 | 71 | 39 | 0.0 | 0.0 | 0.00 | 0.42 | 0.42 | 93 | 1009.1 |
| 20260905075542 | 71 | 39 | 0.0 | 0.0 | 0.00 | 0.80 | 0.42 | 93 | 1009.1 |
| 20260905075044 | 71 | 39 | 0.0 | 0.0 | 0.00 | 0.80 | 0.42 | 93 | 1009.1 |
| 20260905074550 | 71 | 27 | 0.0 | 0.0 | 0.00 | 0.80 | 0.42 | 93 | 1009.2 |
| 20260905074043 | 71 | 36 | 0.0 | 0.0 | 0.00 | 0.80 | 0.42 | 93 | 1009.1 |
| 20260905073541 | 71 | 48 | 0.0 | 0.0 | 0.00 | 0.80 | 0.42 | 93 | 1009.1 |
| 20260905073041 | 71 | 39 | 0.0 | 0.0 | 0.01 | 0.80 | 0.42 | 93 | 1009.1 |
| 20260905072540 | 71 | 39 | 0.0 | 0.0 | 0.02 | 0.80 | 0.42 | 93 | 1009.1 |
| 20260905072040 | 72 | 186 | 0.0 | 0.0 | 0.03 | 0.80 | 0.42 | 93 | 1009.0 |
| 20260905071546 | 72 | 186 | 0.0 | 1.0 | 0.04 | 0.80 | 0.42 | 93 | 1009.0 |
| 20260905071038 | 72 | 186 | 0.0 | 1.0 | 0.05 | 0.80 | 0.42 | 93 | 1009.0 |
| 20260905070538 | 72 | 186 | 0.0 | 1.0 | 0.06 | 0.80 | 0.42 | 93 | 1009.1 |
| 20260905070038 | 72 | 186 | 0.0 | 1.0 | 0.07 | 0.80 | 0.42 | 93 | 1009.1 |
| 20260905065538 | 72 | 186 | 0.0 | 1.0 | 0.09 | 0.81 | 0.42 | 93 | 1009.1 |
| 20260905065038 | 72 | 186 | 0.0 | 1.0 | 0.17 | 0.81 | 0.42 | 93 | 1009.2 |
| 20260905064535 | 72 | 186 | 0.0 | 1.0 | 0.24 | 0.81 | 0.42 | 93 | 1009.3 |
| 20260905064034 | 72 | 186 | 0.0 | 2.0 | 0.25 | 0.81 | 0.42 | 93 | 1009.4 |
| 20260905063534 | 72 | 186 | 0.0 | 2.0 | 0.26 | 0.81 | 0.42 | 93 | 1009.4 |
| 20260905063034 | 72 | 186 | 0.0 | 2.0 | 0.26 | 0.80 | 0.41 | 93 | 1009.6 |
| 20260905062536 | 72 | 227 | 0.0 | 2.0 | 0.25 | 0.79 | 0.40 | 93 | 1009.7 |
| 20260905062033 | 72 | 240 | 1.0 | 2.0 | 0.24 | 0.78 | 0.39 | 93 | 1010.0 |
| 20260905061549 | 72 | 311 | 0.0 | 4.0 | 0.23 | 0.77 | 0.38 | 93 | 1010.0 |
| 20260905061029 | 73 | 19 | 0.0 | 3.0 | 0.23 | 0.76 | 0.37 | 93 | 1010.1 |
| 20260905060529 | 73 | 248 | 0.0 | 3.0 | 0.22 | 0.75 | 0.36 | 92 | 1010.2 |
| 20260905060048 | 73 | 282 | 0.0 | 3.0 | 0.22 | 0.74 | 0.35 | 92 | 1010.2 |
| 20260905055528 | 73 | 287 | 0.0 | 2.0 | 0.19 | 0.71 | 0.32 | 92 | 1010.2 |
| 20260905055027 | 73 | 290 | 0.0 | 3.0 | 0.11 | 0.63 | 0.24 | 92 | 1010.2 |
| 20260905054534 | 73 | 244 | 1.0 | 3.0 | 0.05 | 0.56 | 0.18 | 92 | 1010.2 |
| 20260905054026 | 73 | 281 | 0.0 | 3.0 | 0.04 | 0.56 | 0.17 | 92 | 1010.2 |
| 20260905053526 | 73 | 321 | 1.0 | 4.0 | 0.03 | 0.55 | 0.16 | 92 | 1010.2 |
| 20260905053026 | 73 | 215 | 2.0 | 4.0 | 0.02 | 0.54 | 0.15 | 92 | 1010.2 |
| 20260905052525 | 73 | 260 | 2.0 | 5.0 | 0.04 | 0.54 | 0.15 | 92 | 1010.2 |
| 20260905052026 | 73 | 248 | 2.0 | 4.0 | 0.07 | 0.54 | 0.15 | 92 | 1010.3 |
| 20260905051533 | 73 | 198 | 2.0 | 7.0 | 0.10 | 0.54 | 0.15 | 92 | 1010.2 |
| 20260905051022 | 74 | 275 | 1.0 | 8.0 | 0.11 | 0.53 | 0.14 | 91 | 1010.3 |
| 20260905050522 | 74 | 305 | 4.0 | 8.0 | 0.13 | 0.53 | 0.14 | 92 | 1010.4 |
| 20260905050022 | 74 | 267 | 2.0 | 7.0 | 0.13 | 0.52 | 0.13 | 91 | 1010.5 |
| 20260905045522 | 74 | 258 | 3.0 | 7.0 | 0.13 | 0.52 | 0.13 | 91 | 1010.5 |
| 20260905045020 | 74 | 249 | 2.0 | 5.0 | 0.13 | 0.52 | 0.13 | 90 | 1010.5 |
| 20260905044519 | 74 | 254 | 0.0 | 5.0 | 0.13 | 0.52 | 0.13 | 90 | 1010.5 |
| 20260905044018 | 74 | 256 | 2.0 | 8.0 | 0.13 | 0.52 | 0.13 | 90 | 1010.5 |
| 20260905043519 | 75 | 248 | 3.0 | 8.0 | 0.13 | 0.52 | 0.13 | 90 | 1010.6 |
| 20260905043019 | 75 | 262 | 1.0 | 10.0 | 0.13 | 0.52 | 0.13 | 89 | 1010.5 |
| 20260905042515 | 75 | 309 | 3.0 | 13.0 | 0.11 | 0.50 | 0.11 | 88 | 1010.7 |
| 20260905042014 | 76 | 82 | 5.0 | 13.0 | 0.08 | 0.47 | 0.08 | 87 | 1010.7 |
| 20260905041513 | 77 | 346 | 3.0 | 9.0 | 0.04 | 0.43 | 0.04 | 87 | 1010.7 |
| 20260905041012 | 77 | 348 | 1.0 | 4.0 | 0.03 | 0.42 | 0.03 | 88 | 1010.6 |
| 20260905040510 | 78 | 306 | 0.0 | 1.0 | 0.01 | 0.40 | 0.01 | 88 | 1010.5 |
| 20260905040009 | 78 | 240 | 0.0 | 0.0 | 0.00 | 0.39 | 0.00 | 87 | 1010.3 |
| 20260905035509 | 78 | 240 | 0.0 | 0.0 | 0.00 | 0.39 | 0.39 | 86 | 1010.2 |
| 20260905035008 | 78 | 240 | 0.0 | 1.0 | 0.00 | 0.39 | 0.39 | 86 | 1010.1 |
| 20260905034512 | 78 | 240 | 0.0 | 1.0 | 0.00 | 0.39 | 0.39 | 85 | 1010.2 |
| 20260905034009 | 79 | 240 | 0.0 | 2.0 | 0.00 | 0.39 | 0.39 | 85 | 1010.2 |
| 20260905033507 | 79 | 240 | 0.0 | 2.0 | 0.00 | 0.39 | 0.39 | 84 | 1010.3 |
| 20260905033007 | 79 | 240 | 0.0 | 2.0 | 0.00 | 0.39 | 0.39 | 84 | 1010.4 |
| 20260905032506 | 79 | 240 | 0.0 | 2.0 | 0.00 | 0.39 | 0.39 | 84 | 1010.3 |
| 20260905032006 | 79 | 240 | 1.0 | 2.0 | 0.00 | 0.39 | 0.39 | 84 | 1010.3 |
| 20260905031513 | 79 | 228 | 0.0 | 2.0 | 0.00 | 0.39 | 0.39 | 84 | 1010.4 |
| 20260905031009 | 79 | 231 | 0.0 | 3.0 | 0.00 | 0.39 | 0.39 | 85 | 1010.5 |
| 20260905030506 | 78 | 285 | 1.0 | 3.0 | 0.00 | 0.39 | 0.39 | 85 | 1010.6 |
| 20260905030007 | 78 | 242 | 0.0 | 3.0 | 0.00 | 0.39 | 0.39 | 86 | 1010.5 |
| 20260905025506 | 78 | 217 | 1.0 | 3.0 | 0.00 | 0.39 | 0.39 | 87 | 1010.6 |
| 20260905025005 | 78 | 276 | 0.0 | 3.0 | 0.00 | 0.39 | 0.39 | 88 | 1010.7 |
| 20260905024506 | 77 | 242 | 0.0 | 2.0 | 0.00 | 0.39 | 0.39 | 89 | 1010.6 |
| 20260905024005 | 77 | 250 | 0.0 | 1.0 | 0.00 | 0.39 | 0.39 | 89 | 1010.5 |
| 20260905023505 | 77 | 250 | 0.0 | 1.0 | 0.00 | 0.39 | 0.39 | 90 | 1010.5 |
| 20260905023015 | 77 | 250 | 0.0 | 1.0 | 0.00 | 0.39 | 0.39 | 89 | 1010.4 |
| 20260905022505 | 77 | 250 | 0.0 | 1.0 | 0.00 | 0.39 | 0.39 | 89 | 1010.4 |
| 20260905022005 | 77 | 250 | 0.0 | 0.0 | 0.00 | 0.39 | 0.39 | 89 | 1010.4 |
| 20260905021506 | 77 | 250 | 0.0 | 1.0 | 0.00 | 0.39 | 0.39 | 89 | 1010.4 |
| 20260905021006 | 77 | 250 | 0.0 | 1.0 | 0.00 | 0.39 | 0.39 | 89 | 1010.3 |
| 20260905020506 | 77 | 250 | 0.0 | 1.0 | 0.00 | 0.39 | 0.39 | 88 | 1010.4 |
| 20260905020005 | 77 | 250 | 0.0 | 0.0 | 0.00 | 0.39 | 0.39 | 88 | 1010.4 |
| 20260905015505 | 77 | 250 | 0.0 | 0.0 | 0.00 | 0.39 | 0.39 | 88 | 1010.5 |
| 20260905015005 | 77 | 250 | 0.0 | 1.0 | 0.00 | 0.39 | 0.39 | 87 | 1010.6 |
| 20260905014505 | 77 | 250 | 0.0 | 1.0 | 0.00 | 0.39 | 0.39 | 87 | 1010.5 |
| 20260905014003 | 77 | 250 | 0.0 | 0.0 | 0.00 | 0.39 | 0.39 | 86 | 1010.6 |
| 20260905013504 | 77 | 250 | 0.0 | 0.0 | 0.00 | 0.39 | 0.39 | 86 | 1010.6 |
| 20260905013006 | 78 | 250 | 0.0 | 1.0 | 0.00 | 0.39 | 0.39 | 85 | 1010.6 |
| 20260905012503 | 78 | 250 | 0.0 | 1.0 | 0.00 | 0.39 | 0.39 | 84 | 1010.6 |
| 20260905012003 | 78 | 250 | 0.0 | 1.0 | 0.00 | 0.39 | 0.39 | 84 | 1010.5 |